Simultaneous Nadir Overpasses (SNOs) Predictions

Prediction of SNOs between METOP-C and LANDSAT-8 Satellite Orbit:

Table of predicted SNOs for the next 14.0 days since TLE Epoch: 3/1/2025
Index Date (METOP-C) Time (METOP-C) Lat,Lon (METOP-C) SZA (METOP-C ) Date (LANDSAT-8) Time (LANDSAT-8) Lat,Lon (LANDSAT-8) SZA (LANDSAT-8 ) Distance(km) Time Diff (sec)
1 03/02/2025 15:01:18 81.11, -6.26 89.71 03/02/2025 15:02:27 81.11, -6.26 89.73 0.22 69
2 03/02/2025 15:51:57 -81.14, 161.83 90.22 03/02/2025 15:51:53 -81.13, 161.72 90.24 2.09 4
3 03/05/2025 10:35:35 81.11, 60.27 88.65 03/05/2025 10:36:41 81.11, 60.22 88.67 0.78 66
4 03/05/2025 11:26:14 -81.14,-131.60 91.27 03/05/2025 11:26:07 -81.13,-131.78 91.30 3.22 7
5 03/08/2025 06:09:53 81.11, 126.63 87.57 03/08/2025 06:10:55 81.11, 126.64 87.59 0.25 62
6 03/08/2025 07:00:32 -81.14, -65.18 92.35 03/08/2025 07:00:21 -81.13, -65.35 92.37 2.90 11
7 03/11/2025 01:44:11 81.10,-167.16 86.46 03/11/2025 01:45:08 81.10,-167.02 86.50 2.34 57
8 03/11/2025 02:34:49 -81.15, 1.44 93.40 03/11/2025 02:34:33 -81.15, 1.38 93.41 1.21 16
9 03/13/2025 21:18:26 81.12,-100.35 85.42 03/13/2025 21:19:18 81.11,-100.39 85.44 0.63 52



Historial Predications of SNOs between METOP-C and LANDSAT-8
